Ft Lauderdale, FL

10:21 PM EST on November 20, 2019 (GMT -0500)
Fort Lauderdale-Hollywood International

Weather History for KFLL - September, 2019

Change the Weather History Date:

Saturday, September 21, 2019

  Actual Average Record
Temperature  
Mean Temperature 82 °F 83 °F  
Max Temperature 86 °F 89 °F 94 °F (1987)
Min Temperature 78 °F 77 °F 68 °F (1925)
Degree Days  
Heating Degree Days 0 0  
Month to date heating degree days 0 0  
Since 1 July heating degree days 0 0  
Cooling Degree Days 17 18  
Month to date cooling degree days 410 384  
Year to date cooling degree days 3797 3550  
Growing Degree Days 32 (Base 50)    
Moisture  
Dew Point 72 °F    
Average Humidity 76    
Maximum Humidity 85    
Minimum Humidity 67    
Precipitation  
Precipitation 0.05 in 0.30 in 3.20 in (1948)
Month to date precipitation 1.30 6.11  
Year to date precipitation 41.94 47.18  
Snow  
Snow 0.00 in - - ()
Month to date snowfall 0.0  
Since 1 July snowfall 0.0  
Since 1 September snowfall 0.0  
Snow Depth 0.00 in    
Sea Level Pressure  
Sea Level Pressure 30.03 in    
Wind  
Wind Speed 18 mph (ENE)    
Max Wind Speed 26 mph    
Max Gust Speed 35 mph    
Visibility 10 miles    
Events Rain    
T = Trace of Precipitation, MM = Missing Value Source: NWS Daily Summary

Daily Weather History Graph

Daily Weather History Graph

Search for Another Location

Airport or City:

Astronomy

Sep. 21, 2019 Rise Set
Actual Time 7:08 AM EDT 7:18 PM EDT
Civil Twilight 6:45 AM EDT 7:41 PM EDT
Nautical Twilight 6:18 AM EDT 8:08 PM EDT
Astronomical Twilight 5:51 AM EDT 8:35 PM EDT
Moon No Moon Rise 1:37 PM EDT
Length of Visible Light 12h 55m
Length of Day
12h 09m
Waning Gibbous, 55% of the Moon is Illuminated
Sep 21
Waning Gibbous
Sep 21
Last Quarter
Sep 28
New
Oct 5
First Quarter
Oct 13
Full

Hourly Weather History & Observations

Time (EDT) Temp. Heat Index Dew Point Humidity Pressure Visibility Wind Dir Wind Speed Gust Speed Precip Events Conditions
12:53 AM 80.1 °F 82.7 °F 68.0 °F 67% 30.04 in 10.0 mi East 21.9 mph 29.9 mph N/A   Scattered Clouds
1:53 AM 80.1 °F 83.2 °F 70.0 °F 71% 30.03 in 10.0 mi ENE 16.1 mph 25.3 mph N/A   Scattered Clouds
2:53 AM 80.1 °F 83.2 °F 70.0 °F 71% 30.02 in 10.0 mi ENE 19.6 mph 26.5 mph N/A   Mostly Cloudy
3:53 AM 80.1 °F 83.2 °F 70.0 °F 71% 30.01 in 10.0 mi ENE 15.0 mph 25.3 mph N/A   Mostly Cloudy
4:53 AM 80.1 °F 83.6 °F 71.1 °F 74% 30.01 in 10.0 mi ENE 19.6 mph 27.6 mph N/A   Mostly Cloudy
5:53 AM 80.1 °F 83.8 °F 72.0 °F 76% 30.01 in 10.0 mi ENE 13.8 mph 23.0 mph N/A   Mostly Cloudy
6:53 AM 80.1 °F 83.8 °F 72.0 °F 76% 30.02 in 10.0 mi ENE 13.8 mph 21.9 mph N/A   Mostly Cloudy
7:53 AM 79.0 °F - 73.9 °F 84% 30.04 in 9.0 mi NE 12.7 mph - 0.00 in   Overcast
8:53 AM 79.0 °F - 73.0 °F 82% 30.06 in 3.0 mi ENE 17.3 mph 28.8 mph 0.03 in Rain Heavy Rain
9:53 AM 81.0 °F 86.2 °F 73.9 °F 79% 30.07 in 10.0 mi ENE 17.3 mph 27.6 mph 0.02 in   Mostly Cloudy
10:53 AM 82.9 °F 89.4 °F 73.9 °F 74% 30.08 in 10.0 mi ENE 18.4 mph 27.6 mph N/A   Mostly Cloudy
11:53 AM 84.0 °F 91.2 °F 73.9 °F 72% 30.06 in 10.0 mi ENE 21.9 mph 32.2 mph N/A   Scattered Clouds
12:53 PM 84.0 °F 90.2 °F 73.0 °F 69% 30.06 in 10.0 mi ENE 23.0 mph 32.2 mph N/A   Mostly Cloudy
1:53 PM 82.9 °F 88.8 °F 73.0 °F 72% 30.04 in 10.0 mi NE 18.4 mph 31.1 mph N/A   Mostly Cloudy
2:53 PM 82.9 °F 88.8 °F 73.0 °F 72% 30.03 in 10.0 mi ENE 21.9 mph 31.1 mph N/A   Mostly Cloudy
3:53 PM 82.9 °F 88.8 °F 73.0 °F 72% 30.02 in 10.0 mi NE 21.9 mph 29.9 mph N/A   Mostly Cloudy
4:53 PM 84.0 °F 90.2 °F 73.0 °F 69% 30.00 in 10.0 mi ENE 19.6 mph 28.8 mph N/A   Mostly Cloudy
5:53 PM 82.0 °F 86.7 °F 72.0 °F 71% 30.01 in 10.0 mi ENE 17.3 mph 29.9 mph N/A   Mostly Cloudy
6:53 PM 81.0 °F 85.2 °F 72.0 °F 74% 30.01 in 10.0 mi ENE 15.0 mph 27.6 mph N/A   Mostly Cloudy
7:53 PM 81.0 °F 85.2 °F 72.0 °F 74% 30.01 in 10.0 mi ENE 17.3 mph 25.3 mph N/A   Mostly Cloudy
8:53 PM 81.0 °F 85.2 °F 72.0 °F 74% 30.02 in 10.0 mi ENE 16.1 mph 25.3 mph N/A   Mostly Cloudy
9:53 PM 80.1 °F 83.8 °F 72.0 °F 76% 30.04 in 10.0 mi NE 18.4 mph 26.5 mph 0.00 in   Mostly Cloudy
10:53 PM 80.1 °F 83.8 °F 72.0 °F 76% 30.05 in 10.0 mi ENE 21.9 mph 29.9 mph N/A   Mostly Cloudy
11:53 PM 81.0 °F 84.9 °F 71.1 °F 72% 30.04 in 10.0 mi ENE 18.4 mph 25.3 mph N/A   Mostly Cloudy